| time (UTC) | temp F | wind direction | speed MPH | gust MPH | rain 1hr in | rain 24hr in | rain mn in | humidity % | barometer mb |
| 20260905230204 | 101 | 34 | 3.0 | 7.0 | 0.00 | 0.00 | 0.00 | 33 | 1000.0 |
| 20260905225704 | 101 | 7 | 5.0 | 8.0 | 0.00 | 0.00 | 0.00 | 32 | 1000.0 |
| 20260905225203 | 101 | 45 | 2.0 | 8.0 | 0.00 | 0.00 | 0.00 | 33 | 1000.0 |
| 20260905224704 | 101 | 18 | 3.0 | 9.0 | 0.00 | 0.00 | 0.00 | 32 | 1000.0 |
| 20260905224204 | 101 | 356 | 4.0 | 9.0 | 0.00 | 0.00 | 0.00 | 32 | 1000.0 |
| 20260905223704 | 101 | 41 | 4.0 | 7.0 | 0.00 | 0.00 | 0.00 | 32 | 1000.0 |
| 20260905223204 | 101 | 324 | 3.0 | 8.0 | 0.00 | 0.00 | 0.00 | 31 | 1000.0 |
| 20260905222704 | 101 | 9 | 6.0 | 9.0 | 0.00 | 0.00 | 0.00 | 31 | 1000.0 |
| 20260905222203 | 102 | 35 | 3.0 | 7.0 | 0.00 | 0.00 | 0.00 | 31 | 1000.0 |
| 20260905221704 | 101 | 14 | 2.0 | 6.0 | 0.00 | 0.00 | 0.00 | 31 | 1000.0 |
| 20260905221203 | 101 | 346 | 3.0 | 8.0 | 0.00 | 0.00 | 0.00 | 31 | 1000.0 |
| 20260905220703 | 101 | 59 | 2.0 | 5.0 | 0.00 | 0.00 | 0.00 | 31 | 1000.0 |
| 20260905215704 | 101 | 2 | 5.0 | 10.0 | 0.00 | 0.00 | 0.00 | 31 | 1000.0 |
| 20260905215203 | 101 | 15 | 3.0 | 9.0 | 0.00 | 0.00 | 0.00 | 31 | 1000.0 |
| 20260905214704 | 101 | 359 | 5.0 | 9.0 | 0.00 | 0.00 | 0.00 | 31 | 1000.0 |
| 20260905214204 | 102 | 10 | 3.0 | 9.0 | 0.00 | 0.00 | 0.00 | 30 | 1000.0 |
| 20260905213704 | 102 | 17 | 3.0 | 8.0 | 0.00 | 0.00 | 0.00 | 30 | 1000.0 |
| 20260905212704 | 102 | 316 | 3.0 | 8.0 | 0.00 | 0.00 | 0.00 | 30 | 1000.0 |
| 20260905212203 | 102 | 346 | 3.0 | 7.0 | 0.00 | 0.00 | 0.00 | 30 | 1000.0 |
| 20260905211704 | 102 | 319 | 1.0 | 2.0 | 0.00 | 0.00 | 0.00 | 30 | 1000.0 |
| 20260905210704 | 101 | 351 | 3.0 | 9.0 | 0.00 | 0.00 | 0.00 | 30 | 1000.0 |
| 20260905210204 | 101 | 9 | 6.0 | 10.0 | 0.00 | 0.00 | 0.00 | 30 | 1000.0 |
| 20260905205704 | 102 | 351 | 5.0 | 12.0 | 0.00 | 0.00 | 0.00 | 29 | 1000.0 |
| 20260905205203 | 103 | 329 | 3.0 | 7.0 | 0.00 | 0.00 | 0.00 | 29 | 1000.0 |
| 20260905204704 | 102 | 11 | 2.0 | 6.0 | 0.00 | 0.00 | 0.00 | 29 | 1000.0 |
| 20260905204204 | 102 | 26 | 2.0 | 6.0 | 0.00 | 0.00 | 0.00 | 29 | 1000.0 |
| 20260905203703 | 102 | 3 | 3.0 | 9.0 | 0.00 | 0.00 | 0.00 | 29 | 1000.0 |
| 20260905203203 | 102 | 1 | 5.0 | 8.0 | 0.00 | 0.00 | 0.00 | 29 | 1000.0 |
| 20260905202704 | 102 | 3 | 4.0 | 9.0 | 0.00 | 0.00 | 0.00 | 30 | 1000.0 |
| 20260905202204 | 102 | 354 | 5.0 | 9.0 | 0.00 | 0.00 | 0.00 | 30 | 1000.0 |
| 20260905201703 | 101 | 67 | 3.0 | 9.0 | 0.00 | 0.00 | 0.00 | 31 | 1000.0 |
| 20260905201204 | 101 | 4 | 3.0 | 9.0 | 0.00 | 0.00 | 0.00 | 31 | 1000.0 |
| 20260905200703 | 101 | 5 | 6.0 | 9.0 | 0.00 | 0.00 | 0.00 | 30 | 1000.0 |
| 20260905200204 | 101 | 3 | 5.0 | 9.0 | 0.00 | 0.00 | 0.00 | 31 | 1000.0 |
| 20260905195204 | 102 | 330 | 5.0 | 12.0 | 0.00 | 0.00 | 0.00 | 30 | 1000.0 |
| 20260905194704 | 102 | 16 | 2.0 | 5.0 | 0.00 | 0.00 | 0.00 | 30 | 1000.0 |
| 20260905194203 | 102 | 274 | 3.0 | 7.0 | 0.00 | 0.00 | 0.00 | 29 | 1000.0 |
| 20260905193704 | 102 | 352 | 2.0 | 6.0 | 0.00 | 0.00 | 0.00 | 29 | 1000.0 |
| 20260905193204 | 101 | 282 | 2.0 | 6.0 | 0.00 | 0.00 | 0.00 | 31 | 1000.0 |
| 20260905192703 | 101 | 279 | 3.0 | 8.0 | 0.00 | 0.00 | 0.00 | 32 | 1000.0 |
| 20260905191204 | 102 | 309 | 5.0 | 8.0 | 0.00 | 0.00 | 0.00 | 30 | 1000.0 |
| 20260905190704 | 102 | 354 | 2.0 | 7.0 | 0.00 | 0.00 | 0.00 | 30 | 1000.0 |
| 20260905190204 | 102 | 341 | 3.0 | 7.0 | 0.00 | 0.00 | 0.00 | 30 | 1000.0 |
| 20260905185704 | 101 | 343 | 3.0 | 7.0 | 0.00 | 0.00 | 0.00 | 31 | 1000.0 |
| 20260905184704 | 101 | 212 | 3.0 | 9.0 | 0.00 | 0.00 | 0.00 | 32 | 1000.0 |
| 20260905184204 | 101 | 342 | 4.0 | 9.0 | 0.00 | 0.00 | 0.00 | 33 | 1000.0 |
| 20260905183203 | 100 | 336 | 7.0 | 10.0 | 0.00 | 0.00 | 0.00 | 33 | 1000.0 |
| 20260905181704 | 100 | 337 | 5.0 | 9.0 | 0.00 | 0.00 | 0.00 | 33 | 1000.0 |
| 20260905181205 | 99 | 311 | 6.0 | 10.0 | 0.00 | 0.00 | 0.00 | 35 | 1000.0 |
| 20260905180704 | 100 | 303 | 5.0 | 10.0 | 0.00 | 0.00 | 0.00 | 32 | 1000.0 |
| 20260905180204 | 100 | 282 | 3.0 | 9.0 | 0.00 | 0.00 | 0.00 | 34 | 1000.0 |
| 20260905175704 | 100 | 291 | 3.0 | 9.0 | 0.00 | 0.00 | 0.00 | 34 | 1000.0 |
| 20260905175204 | 99 | 290 | 4.0 | 8.0 | 0.00 | 0.00 | 0.00 | 35 | 1000.0 |
| 20260905174704 | 99 | 324 | 4.0 | 9.0 | 0.00 | 0.00 | 0.00 | 36 | 1000.0 |
| 20260905174204 | 99 | 345 | 3.0 | 8.0 | 0.00 | 0.00 | 0.00 | 36 | 1000.0 |
| 20260905173204 | 99 | 347 | 3.0 | 7.0 | 0.00 | 0.00 | 0.00 | 35 | 1000.0 |
| 20260905172704 | 99 | 357 | 1.0 | 6.0 | 0.00 | 0.00 | 0.00 | 36 | 1000.0 |
| 20260905172204 | 99 | 352 | 3.0 | 6.0 | 0.00 | 0.00 | 0.00 | 36 | 1000.0 |
| 20260905171704 | 98 | 233 | 2.0 | 5.0 | 0.00 | 0.00 | 0.00 | 39 | 1000.0 |
| 20260905171204 | 97 | 308 | 3.0 | 8.0 | 0.00 | 0.00 | 0.00 | 39 | 1000.0 |
| 20260905170704 | 97 | 297 | 3.0 | 8.0 | 0.00 | 0.00 | 0.00 | 39 | 1000.0 |
| 20260905170204 | 97 | 0 | 1.0 | 6.0 | 0.00 | 0.00 | 0.00 | 40 | 1000.0 |
| 20260905165708 | 97 | 284 | 3.0 | 9.0 | 0.00 | 0.00 | 0.00 | 40 | 1000.0 |
| 20260905165204 | 97 | 280 | 2.0 | 8.0 | 0.00 | 0.00 | 0.00 | 41 | 1000.0 |
| 20260905164203 | 96 | 273 | 2.0 | 8.0 | 0.00 | 0.00 | 0.00 | 42 | 1000.0 |
| 20260905163703 | 95 | 308 | 2.0 | 7.0 | 0.00 | 0.00 | 0.00 | 44 | 1000.0 |
| 20260905162703 | 95 | 282 | 3.0 | 7.0 | 0.00 | 0.00 | 0.00 | 44 | 1000.0 |
| 20260905162204 | 94 | 345 | 3.0 | 8.0 | 0.00 | 0.00 | 0.00 | 45 | 1000.0 |
| 20260905161703 | 95 | 264 | 4.0 | 8.0 | 0.00 | 0.00 | 0.00 | 44 | 1000.0 |
| 20260905161204 | 94 | 320 | 3.0 | 7.0 | 0.00 | 0.00 | 0.00 | 45 | 1000.0 |
| 20260905160704 | 94 | 324 | 4.0 | 7.0 | 0.00 | 0.00 | 0.00 | 45 | 1000.0 |
| 20260905160203 | 94 | 292 | 4.0 | 6.0 | 0.00 | 0.00 | 0.00 | 46 | 1000.0 |
| 20260905155704 | 94 | 293 | 5.0 | 8.0 | 0.00 | 0.00 | 0.00 | 45 | 1000.0 |
| 20260905155203 | 94 | 233 | 2.0 | 7.0 | 0.00 | 0.00 | 0.00 | 46 | 1000.0 |
| 20260905154704 | 94 | 231 | 4.0 | 7.0 | 0.00 | 0.00 | 0.00 | 47 | 1000.0 |
| 20260905153203 | 92 | 203 | 5.0 | 7.0 | 0.00 | 0.00 | 0.00 | 49 | 1000.0 |
| 20260905152704 | 92 | 232 | 3.0 | 8.0 | 0.00 | 0.00 | 0.00 | 50 | 1000.0 |
| 20260905152203 | 91 | 211 | 5.0 | 8.0 | 0.00 | 0.00 | 0.00 | 51 | 1000.0 |
| 20260905151704 | 91 | 239 | 3.0 | 7.0 | 0.00 | 0.00 | 0.00 | 52 | 1000.0 |
| 20260905151204 | 91 | 251 | 3.0 | 6.0 | 0.00 | 0.00 | 0.00 | 52 | 1000.0 |
| 20260905150703 | 91 | 230 | 3.0 | 8.0 | 0.00 | 0.00 | 0.00 | 52 | 1000.0 |
| 20260905150204 | 90 | 232 | 2.0 | 8.0 | 0.00 | 0.00 | 0.00 | 54 | 1000.0 |
| 20260905145703 | 89 | 222 | 2.0 | 5.0 | 0.00 | 0.00 | 0.00 | 55 | 1000.0 |
| 20260905145204 | 89 | 243 | 2.0 | 6.0 | 0.00 | 0.00 | 0.00 | 56 | 1000.0 |
| 20260905144703 | 88 | 202 | 1.0 | 6.0 | 0.00 | 0.00 | 0.00 | 57 | 1000.0 |
| 20260905144204 | 88 | 246 | 2.0 | 5.0 | 0.00 | 0.00 | 0.00 | 57 | 1000.0 |
| 20260905143704 | 88 | 238 | 3.0 | 6.0 | 0.00 | 0.00 | 0.00 | 57 | 1000.0 |
| 20260905143203 | 88 | 225 | 3.0 | 7.0 | 0.00 | 0.00 | 0.00 | 57 | 1000.0 |
| 20260905142704 | 87 | 216 | 4.0 | 7.0 | 0.00 | 0.00 | 0.00 | 57 | 1000.0 |
| 20260905141704 | 87 | 194 | 3.0 | 6.0 | 0.00 | 0.00 | 0.00 | 59 | 1000.0 |
| 20260905141203 | 86 | 216 | 2.0 | 5.0 | 0.00 | 0.00 | 0.00 | 60 | 1000.0 |
| 20260905140704 | 86 | 209 | 3.0 | 6.0 | 0.00 | 0.00 | 0.00 | 60 | 1000.0 |
| 20260905140203 | 85 | 225 | 2.0 | 6.0 | 0.00 | 0.00 | 0.00 | 60 | 1000.0 |
| 20260905135704 | 85 | 199 | 3.0 | 7.0 | 0.00 | 0.00 | 0.00 | 61 | 1000.0 |
| 20260905135203 | 84 | 212 | 6.0 | 9.0 | 0.00 | 0.00 | 0.00 | 61 | 1000.0 |
| 20260905134204 | 84 | 212 | 3.0 | 6.0 | 0.00 | 0.00 | 0.00 | 62 | 1000.0 |
| 20260905132704 | 83 | 212 | 1.0 | 2.0 | 0.00 | 0.00 | 0.00 | 64 | 1000.0 |
| 20260905132203 | 83 | 196 | 2.0 | 5.0 | 0.00 | 0.00 | 0.00 | 65 | 1000.0 |
| 20260905131704 | 82 | 183 | 2.0 | 5.0 | 0.00 | 0.00 | 0.00 | 67 | 1000.0 |
| 20260905131204 | 81 | 181 | 3.0 | 5.0 | 0.00 | 0.00 | 0.00 | 69 | 1000.0 |
| 20260905130703 | 81 | 177 | 3.0 | 6.0 | 0.00 | 0.00 | 0.00 | 70 | 1000.0 |
| 20260905130204 | 80 | 190 | 4.0 | 5.0 | 0.00 | 0.00 | 0.00 | 72 | 1000.0 |
| 20260905125703 | 80 | 177 | 2.0 | 3.0 | 0.00 | 0.00 | 0.00 | 74 | 1000.0 |
| 20260905125203 | 79 | 69 | 0.0 | 1.0 | 0.00 | 0.00 | 0.00 | 76 | 1000.0 |
| 20260905124704 | 78 | 107 | 0.0 | 2.0 | 0.00 | 0.00 | 0.00 | 78 | 1000.0 |
| 20260905124203 | 78 | 101 | 2.0 | 3.0 | 0.00 | 0.00 | 0.00 | 78 | 1000.0 |
| 20260905122704 | 79 | 139 | 2.0 | 2.0 | 0.00 | 0.00 | 0.00 | 75 | 1000.0 |
| 20260905122203 | 79 | 121 | 0.0 | 0.0 | 0.00 | 0.00 | 0.00 | 74 | 1000.0 |
| 20260905121704 | 79 | 121 | 0.0 | 0.0 | 0.00 | 0.00 | 0.00 | 75 | 1000.0 |
| 20260905120704 | 79 | 121 | 0.0 | 2.0 | 0.00 | 0.00 | 0.00 | 74 | 1000.0 |
| 20260905120203 | 79 | 102 | 0.0 | 0.0 | 0.00 | 0.00 | 0.00 | 73 | 1000.0 |
| 20260905115704 | 79 | 102 | 0.0 | 0.0 | 0.00 | 0.00 | 0.00 | 74 | 1000.0 |
| 20260905115203 | 79 | 102 | 0.0 | 0.0 | 0.00 | 0.00 | 0.00 | 74 | 1000.0 |
| 20260905114704 | 78 | 102 | 0.0 | 0.0 | 0.00 | 0.00 | 0.00 | 74 | 1000.0 |
| 20260905113703 | 78 | 102 | 0.0 | 2.0 | 0.00 | 0.00 | 0.00 | 74 | 1000.0 |
| 20260905113204 | 78 | 134 | 2.0 | 3.0 | 0.00 | 0.00 | 0.00 | 74 | 1000.0 |
| 20260905112703 | 78 | 115 | 2.0 | 3.0 | 0.00 | 0.00 | 0.00 | 74 | 1000.0 |
| 20260905112204 | 79 | 93 | 0.0 | 2.0 | 0.00 | 0.00 | 0.00 | 74 | 1000.0 |
| 20260905111704 | 79 | 133 | 1.0 | 2.0 | 0.00 | 0.00 | 0.00 | 72 | 1000.0 |
| 20260905111203 | 79 | 142 | 1.0 | 3.0 | 0.00 | 0.00 | 0.00 | 72 | 1000.0 |
| 20260905110704 | 79 | 168 | 2.0 | 3.0 | 0.00 | 0.00 | 0.00 | 73 | 1000.0 |
| 20260905110203 | 78 | 169 | 2.0 | 2.0 | 0.00 | 0.00 | 0.00 | 76 | 1000.0 |
| 20260905104703 | 77 | 146 | 3.0 | 5.0 | 0.00 | 0.00 | 0.00 | 80 | 1000.0 |
| 20260905103204 | 77 | 138 | 4.0 | 5.0 | 0.00 | 0.00 | 0.00 | 81 | 1000.0 |
| 20260905102703 | 77 | 133 | 5.0 | 6.0 | 0.00 | 0.00 | 0.00 | 80 | 1000.0 |
| 20260905102205 | 78 | 138 | 3.0 | 5.0 | 0.00 | 0.00 | 0.00 | 79 | 1000.0 |
| 20260905101703 | 78 | 134 | 3.0 | 6.0 | 0.00 | 0.00 | 0.00 | 78 | 1000.0 |
| 20260905101203 | 78 | 131 | 5.0 | 6.0 | 0.00 | 0.00 | 0.00 | 76 | 1000.0 |
| 20260905100704 | 79 | 127 | 5.0 | 6.0 | 0.00 | 0.00 | 0.00 | 74 | 1000.0 |
| 20260905100204 | 79 | 136 | 3.0 | 5.0 | 0.00 | 0.00 | 0.00 | 74 | 1000.0 |
| 20260905095204 | 81 | 152 | 2.0 | 5.0 | 0.00 | 0.00 | 0.00 | 69 | 1000.0 |
| 20260905094703 | 81 | 185 | 4.0 | 6.0 | 0.00 | 0.00 | 0.00 | 67 | 1000.0 |
| 20260905094204 | 81 | 185 | 3.0 | 5.0 | 0.00 | 0.00 | 0.00 | 69 | 1000.0 |
| 20260905093703 | 80 | 183 | 3.0 | 5.0 | 0.00 | 0.00 | 0.00 | 73 | 1000.0 |
| 20260905092704 | 79 | 140 | 3.0 | 5.0 | 0.00 | 0.00 | 0.00 | 79 | 1000.0 |
| 20260905092203 | 79 | 131 | 3.0 | 5.0 | 0.00 | 0.00 | 0.00 | 78 | 1000.0 |
| 20260905091705 | 80 | 131 | 3.0 | 3.0 | 0.00 | 0.00 | 0.00 | 76 | 1000.0 |
| 20260905091204 | 80 | 134 | 2.0 | 3.0 | 0.00 | 0.00 | 0.00 | 75 | 1000.0 |
| 20260905090204 | 80 | 128 | 3.0 | 5.0 | 0.00 | 0.00 | 0.00 | 76 | 1000.0 |
| 20260905085203 | 81 | 137 | 1.0 | 2.0 | 0.00 | 0.00 | 0.00 | 69 | 1000.0 |
| 20260905084704 | 82 | 156 | 1.0 | 3.0 | 0.00 | 0.00 | 0.00 | 68 | 1000.0 |
| 20260905084203 | 82 | 145 | 0.0 | 2.0 | 0.00 | 0.00 | 0.00 | 66 | 1000.0 |
| 20260905083704 | 82 | 84 | 0.0 | 0.0 | 0.00 | 0.00 | 0.00 | 65 | 1000.0 |
| 20260905083204 | 83 | 84 | 0.0 | 2.0 | 0.00 | 0.00 | 0.00 | 64 | 1000.0 |
| 20260905082204 | 84 | 299 | 0.0 | 2.0 | 0.00 | 0.00 | 0.00 | 62 | 1000.0 |
| 20260905081703 | 84 | 278 | 0.0 | 3.0 | 0.00 | 0.00 | 0.00 | 60 | 1000.0 |
| 20260905081204 | 84 | 221 | 3.0 | 8.0 | 0.00 | 0.00 | 0.00 | 59 | 1000.0 |
| 20260905080703 | 84 | 210 | 5.0 | 8.0 | 0.00 | 0.00 | 0.00 | 59 | 1000.0 |
| 20260905080203 | 84 | 220 | 3.0 | 5.0 | 0.00 | 0.00 | 0.00 | 59 | 1000.0 |
| 20260905075704 | 84 | 194 | 4.0 | 6.0 | 0.00 | 0.00 | 0.00 | 58 | 1000.0 |
| 20260905075203 | 84 | 208 | 4.0 | 8.0 | 0.00 | 0.00 | 0.00 | 59 | 1000.0 |
| 20260905074704 | 83 | 197 | 5.0 | 6.0 | 0.00 | 0.00 | 0.00 | 60 | 1000.0 |
| 20260905074203 | 83 | 185 | 3.0 | 5.0 | 0.00 | 0.00 | 0.00 | 62 | 1000.0 |
| 20260905073204 | 83 | 184 | 3.0 | 6.0 | 0.00 | 0.00 | 0.00 | 61 | 1000.0 |
| 20260905072703 | 83 | 182 | 3.0 | 5.0 | 0.00 | 0.00 | 0.00 | 62 | 1000.0 |
| 20260905071703 | 83 | 170 | 4.0 | 6.0 | 0.00 | 0.00 | 0.00 | 61 | 1000.0 |
| 20260905071204 | 83 | 178 | 5.0 | 6.0 | 0.00 | 0.00 | 0.00 | 62 | 1000.0 |
| 20260905070703 | 83 | 166 | 4.0 | 7.0 | 0.00 | 0.00 | 0.00 | 63 | 1000.0 |
| 20260905065704 | 82 | 163 | 3.0 | 5.0 | 0.00 | 0.00 | 0.00 | 67 | 1000.0 |
| 20260905065203 | 81 | 152 | 5.0 | 6.0 | 0.00 | 0.00 | 0.00 | 69 | 1000.0 |
| 20260905064203 | 82 | 135 | 5.0 | 6.0 | 0.00 | 0.00 | 0.00 | 67 | 1000.0 |
| 20260905063704 | 82 | 137 | 5.0 | 7.0 | 0.00 | 0.00 | 0.00 | 65 | 1000.0 |
| 20260905063203 | 83 | 139 | 5.0 | 7.0 | 0.00 | 0.00 | 0.00 | 62 | 1000.0 |
| 20260905062703 | 83 | 144 | 3.0 | 5.0 | 0.00 | 0.00 | 0.00 | 61 | 1000.0 |
| 20260905062204 | 83 | 162 | 3.0 | 6.0 | 0.00 | 0.00 | 0.00 | 61 | 1000.0 |
| 20260905061704 | 83 | 176 | 5.0 | 7.0 | 0.00 | 0.00 | 0.00 | 63 | 1000.0 |
| 20260905061203 | 83 | 156 | 5.0 | 6.0 | 0.00 | 0.00 | 0.00 | 66 | 1000.0 |
| 20260905060703 | 83 | 145 | 3.0 | 6.0 | 0.00 | 0.00 | 0.00 | 68 | 1000.0 |
| 20260905060203 | 82 | 143 | 5.0 | 6.0 | 0.00 | 0.00 | 0.00 | 70 | 1000.0 |
| 20260905055704 | 82 | 132 | 6.0 | 7.0 | 0.00 | 0.00 | 0.00 | 69 | 1000.0 |
| 20260905055204 | 83 | 118 | 5.0 | 6.0 | 0.00 | 0.00 | 0.00 | 68 | 1000.0 |
| 20260905054703 | 83 | 125 | 5.0 | 6.0 | 0.00 | 0.00 | 0.00 | 65 | 1000.0 |
| 20260905054204 | 84 | 140 | 3.0 | 5.0 | 0.00 | 0.00 | 0.00 | 61 | 1000.0 |
| 20260905053704 | 85 | 147 | 3.0 | 5.0 | 0.00 | 0.00 | 0.00 | 60 | 1000.0 |
| 20260905053203 | 85 | 154 | 3.0 | 5.0 | 0.00 | 0.00 | 0.00 | 61 | 1000.0 |
| 20260905052704 | 84 | 150 | 2.0 | 5.0 | 0.00 | 0.00 | 0.00 | 63 | 1000.0 |
| 20260905052204 | 84 | 148 | 3.0 | 5.0 | 0.00 | 0.00 | 0.00 | 64 | 1000.0 |
| 20260905051703 | 84 | 151 | 4.0 | 6.0 | 0.00 | 0.00 | 0.00 | 64 | 1000.0 |
| 20260905050703 | 84 | 152 | 3.0 | 6.0 | 0.00 | 0.00 | 0.00 | 64 | 1000.0 |
| 20260905050204 | 84 | 137 | 4.0 | 7.0 | 0.00 | 0.00 | 0.00 | 66 | 1000.0 |
| 20260905045703 | 84 | 132 | 4.0 | 8.0 | 0.00 | 0.00 | 0.00 | 65 | 1000.0 |
| 20260905045203 | 83 | 130 | 7.0 | 13.0 | 0.00 | 0.00 | 0.00 | 66 | 1000.0 |
| 20260905044704 | 84 | 122 | 6.0 | 8.0 | 0.00 | 0.00 | 0.00 | 64 | 1000.0 |
| 20260905043704 | 85 | 140 | 4.0 | 5.0 | 0.00 | 0.00 | 0.00 | 60 | 1000.0 |
| 20260905043203 | 85 | 140 | 3.0 | 5.0 | 0.00 | 0.00 | 0.00 | 59 | 1000.0 |
| 20260905042704 | 85 | 141 | 4.0 | 5.0 | 0.00 | 0.00 | 0.00 | 61 | 1000.0 |
| 20260905042204 | 85 | 130 | 5.0 | 6.0 | 0.00 | 0.00 | 0.00 | 61 | 1000.0 |
| 20260905041204 | 86 | 134 | 6.0 | 7.0 | 0.00 | 0.00 | 0.00 | 59 | 1000.0 |
| 20260905040704 | 86 | 132 | 5.0 | 6.0 | 0.00 | 0.00 | 0.00 | 60 | 1000.0 |
| 20260905035704 | 85 | 129 | 5.0 | 6.0 | 0.00 | 0.00 | 0.00 | 65 | 1000.0 |
| 20260905035204 | 85 | 129 | 5.0 | 6.0 | 0.00 | 0.00 | 0.00 | 67 | 1000.0 |
| 20260905034203 | 85 | 130 | 5.0 | 6.0 | 0.00 | 0.00 | 0.00 | 65 | 1000.0 |
| 20260905033704 | 86 | 135 | 5.0 | 6.0 | 0.00 | 0.00 | 0.00 | 64 | 1000.0 |
| 20260905033204 | 86 | 126 | 5.0 | 6.0 | 0.00 | 0.00 | 0.00 | 61 | 1000.0 |
| 20260905032703 | 87 | 126 | 5.0 | 6.0 | 0.00 | 0.00 | 0.00 | 60 | 1000.0 |
| 20260905032204 | 87 | 122 | 5.0 | 6.0 | 0.00 | 0.00 | 0.00 | 61 | 1000.0 |
| 20260905031703 | 87 | 126 | 5.0 | 6.0 | 0.00 | 0.00 | 0.00 | 60 | 1000.0 |
| 20260905031204 | 87 | 122 | 4.0 | 6.0 | 0.00 | 0.00 | 0.00 | 62 | 1000.0 |
| 20260905025204 | 88 | 123 | 2.0 | 3.0 | 0.00 | 0.00 | 0.00 | 59 | 1000.0 |
| 20260905024703 | 88 | 136 | 3.0 | 5.0 | 0.00 | 0.00 | 0.00 | 57 | 1000.0 |
| 20260905024204 | 89 | 127 | 3.0 | 5.0 | 0.00 | 0.00 | 0.00 | 55 | 1000.0 |
| 20260905023704 | 89 | 123 | 2.0 | 3.0 | 0.00 | 0.00 | 0.00 | 56 | 1000.0 |
| 20260905023203 | 89 | 62 | 2.0 | 3.0 | 0.00 | 0.00 | 0.00 | 55 | 1000.0 |
| 20260905022703 | 91 | 163 | 2.0 | 3.0 | 0.00 | 0.00 | 0.00 | 51 | 1000.0 |
| 20260905022204 | 91 | 57 | 2.0 | 7.0 | 0.00 | 0.00 | 0.00 | 50 | 1000.0 |
| 20260905021703 | 91 | 97 | 1.0 | 3.0 | 0.00 | 0.00 | 0.00 | 50 | 1000.0 |
| 20260905021203 | 91 | 28 | 0.0 | 2.0 | 0.00 | 0.00 | 0.00 | 51 | 1000.0 |
| 20260905020704 | 92 | 50 | 1.0 | 2.0 | 0.00 | 0.00 | 0.00 | 49 | 1000.0 |
| 20260905020204 | 92 | 98 | 0.0 | 0.0 | 0.00 | 0.00 | 0.00 | 47 | 1000.0 |
| 20260905015703 | 93 | 98 | 0.0 | 0.0 | 0.00 | 0.00 | 0.00 | 46 | 1000.0 |
| 20260905015203 | 93 | 98 | 0.0 | 0.0 | 0.00 | 0.00 | 0.00 | 45 | 1000.0 |
| 20260905014704 | 94 | 98 | 0.0 | 0.0 | 0.00 | 0.00 | 0.00 | 44 | 1000.0 |
| 20260905014203 | 94 | 98 | 0.0 | 0.0 | 0.00 | 0.00 | 0.00 | 43 | 1000.0 |
| 20260905013204 | 96 | 98 | 0.0 | 0.0 | 0.00 | 0.00 | 0.00 | 39 | 1000.0 |
| 20260905012704 | 97 | 98 | 0.0 | 0.0 | 0.00 | 0.00 | 0.00 | 37 | 1000.0 |
| 20260905012204 | 97 | 98 | 0.0 | 0.0 | 0.00 | 0.00 | 0.00 | 37 | 1000.0 |
| 20260905011704 | 97 | 98 | 0.0 | 0.0 | 0.00 | 0.00 | 0.00 | 37 | 1000.0 |
| 20260905011203 | 97 | 98 | 0.0 | 0.0 | 0.00 | 0.00 | 0.00 | 37 | 1000.0 |
| 20260905010704 | 97 | 98 | 0.0 | 0.0 | 0.00 | 0.00 | 0.00 | 37 | 1000.0 |
| 20260905010204 | 97 | 98 | 0.0 | 0.0 | 0.00 | 0.00 | 0.00 | 37 | 1000.0 |
| 20260905005203 | 97 | 98 | 0.0 | 0.0 | 0.00 | 0.00 | 0.00 | 37 | 1000.0 |
| 20260905004704 | 97 | 98 | 0.0 | 0.0 | 0.00 | 0.00 | 0.00 | 37 | 1000.0 |
| 20260905004204 | 97 | 98 | 0.0 | 3.0 | 0.00 | 0.00 | 0.00 | 36 | 1000.0 |
| 20260905003703 | 97 | 223 | 2.0 | 5.0 | 0.00 | 0.00 | 0.00 | 36 | 1000.0 |
| 20260905003204 | 98 | 222 | 3.0 | 5.0 | 0.00 | 0.00 | 0.00 | 36 | 1000.0 |
| 20260905002704 | 98 | 226 | 3.0 | 6.0 | 0.00 | 0.00 | 0.00 | 35 | 1000.0 |
| 20260905002204 | 98 | 212 | 2.0 | 6.0 | 0.00 | 0.00 | 0.00 | 35 | 1000.0 |
| 20260905001703 | 99 | 110 | 1.0 | 3.0 | 0.00 | 0.00 | 0.00 | 35 | 1000.0 |
| 20260905001204 | 99 | 191 | 3.0 | 5.0 | 0.00 | 0.00 | 0.00 | 34 | 1000.0 |
| 20260905000704 | 99 | 184 | 3.0 | 6.0 | 0.00 | 0.00 | 0.00 | 34 | 1000.0 |
| 20260905000204 | 99 | 180 | 5.0 | 7.0 | 0.00 | 0.00 | 0.00 | 33 | 1000.0 |
| 20260904235704 | 99 | 168 | 3.0 | 7.0 | 0.00 | 0.00 | 0.00 | 33 | 1000.0 |
| 20260904235204 | 99 | 172 | 6.0 | 8.0 | 0.00 | 0.00 | 0.00 | 32 | 1000.0 |
| 20260904234704 | 100 | 180 | 6.0 | 8.0 | 0.00 | 0.00 | 0.00 | 32 | 1000.0 |
| 20260904233703 | 100 | 203 | 3.0 | 7.0 | 0.00 | 0.00 | 0.00 | 32 | 1000.0 |
| 20260904232704 | 100 | 192 | 2.0 | 6.0 | 0.00 | 0.00 | 0.00 | 32 | 1000.0 |
| 20260904232204 | 100 | 182 | 6.0 | 9.0 | 0.00 | 0.00 | 0.00 | 31 | 1000.0 |
| 20260904231703 | 100 | 214 | 5.0 | 8.0 | 0.00 | 0.00 | 0.00 | 32 | 1000.0 |
| 20260904231204 | 100 | 150 | 3.0 | 6.0 | 0.00 | 0.00 | 0.00 | 31 | 1000.0 |